Location: Cahas Mountain Overlook
(37.0833°N, 80.1000°W)
Time: 23:06:14
(UTC-04:00)

Altair - Visible Passes

Search period start: 12 July 2024 00:00
Search period end: 22 July 2024 00:00
Orbit: 1502 x 1681 km, 47.2° (Epoch: 12 July)

Date Brightness Start Highest point End Pass type
(mag) Time Alt. Az. Time Alt. Az. Time Alt. Az.
12 Jul 8.3 01:07:21 10° WNW 01:16:06 46° N 01:24:58 10° E visible
12 Jul 7.5 03:12:30 10° WNW 03:21:47 81° NNE 03:31:18 10° ESE visible
12 Jul 7.9 05:17:46 10° WNW 05:25:56 36° SW 05:34:20 10° SSE visible
12 Jul 8.1 22:35:34 10° W 22:44:36 56° NNW 22:53:37 10° ENE visible
13 Jul 8.3 00:42:03 10° WNW 00:50:47 45° N 00:59:37 10° ENE visible
13 Jul 7.5 02:47:18 10° WNW 02:56:33 76° NNE 03:06:02 10° ESE visible
13 Jul 7.8 04:52:26 10° WNW 05:00:48 39° SW 05:09:24 10° SSE visible
13 Jul 8.0 22:10:14 10° W 22:19:19 58° NNW 22:28:22 10° ENE visible
14 Jul 8.3 00:16:45 10° WNW 00:25:28 45° N 00:34:15 10° ENE visible
14 Jul 7.6 02:22:06 10° WNW 02:31:19 72° NNE 02:40:44 10° ESE visible
14 Jul 7.7 04:27:08 10° WNW 04:35:40 43° SW 04:44:26 10° SSE visible
14 Jul 8.0 21:44:55 10° WSW 21:54:03 61° NNW 22:03:08 10° ENE visible
14 Jul 8.4 23:51:27 10° WNW 00:00:08 45° N 00:08:54 10° ENE visible
15 Jul 7.6 01:56:54 10° WNW 02:06:05 68° NNE 02:15:26 10° ESE visible
15 Jul 7.6 04:01:52 10° WNW 04:10:32 47° SW 04:19:27 10° SSE visible
15 Jul 8.0 21:19:35 10° WSW 21:28:48 64° NNW 21:37:55 10° ENE visible
15 Jul 8.4 23:26:07 10° WNW 23:34:49 44° N 23:43:33 10° ENE visible
16 Jul 7.7 01:31:41 10° WNW 01:40:50 65° NNE 01:50:07 10° ESE visible
16 Jul 7.5 03:36:36 10° WNW 03:45:24 51° SW 03:54:25 10° SSE visible
16 Jul 7.9 20:54:17 10° WSW 21:03:33 67° NNW 21:12:42 10° ENE visible
16 Jul 8.4 23:00:47 10° WNW 23:09:30 45° N 23:18:13 10° ENE visible
17 Jul 7.7 01:06:28 10° WNW 01:15:34 62° NNE 01:24:47 10° ESE visible
17 Jul 7.4 03:11:22 10° WNW 03:20:15 55° SW 03:29:22 10° SSE visible
17 Jul 8.7 05:20:08 10° W 05:23:30 12° WSW 05:26:55 10° SW visible
17 Jul 8.4 22:35:26 10° WNW 22:44:11 45° N 22:52:54 10° ENE visible
18 Jul 7.8 00:41:16 10° WNW 00:50:18 59° NNE 00:59:27 10° E visible
18 Jul 7.3 02:46:08 10° WNW 02:55:06 60° SW 02:57:28 48° S visible
18 Jul 8.9 04:54:00 10° W 05:05:27 - SSW 04:55:10 12° WSW visible
18 Jul 8.4 22:10:05 10° WNW 22:18:52 45° N 22:27:36 10° ENE visible
19 Jul 7.9 00:16:02 10° WNW 00:25:02 56° NNE 00:33:03 14° E visible
19 Jul 7.3 02:20:54 10° WNW 02:29:56 65° SW 02:30:53 62° SSW visible
19 Jul 9.0 04:28:08 10° W 04:28:44 11° W 04:28:44 11° W visible
19 Jul 8.4 21:44:44 10° W 21:53:33 46° N 22:02:17 10° ENE visible
19 Jul 7.9 23:50:47 10° WNW 23:59:45 54° NNE 00:07:27 15° E visible
20 Jul 7.2 01:55:40 10° WNW 02:04:47 70° SW 02:05:21 68° SSW visible
20 Jul 9.0 04:02:26 10° W 04:03:14 12° W 04:03:14 12° W visible
20 Jul 8.4 21:19:22 10° W 21:28:14 47° N 21:37:00 10° ENE visible
20 Jul 8.0 23:25:32 10° WNW 23:34:28 52° NNE 23:42:19 14° E visible
21 Jul 7.2 01:30:27 10° WNW 01:39:36 75° SW 01:40:14 73° S visible
21 Jul 9.0 03:36:50 10° W 03:38:09 13° W 03:38:09 13° W visible
21 Jul 8.4 20:53:59 10° W 21:02:56 48° N 21:11:43 10° ENE visible
21 Jul 8.1 23:00:16 10° WNW 23:09:11 51° NNE 23:17:26 12° E visible
